Theta_e
334 335 335 333 332 333 334 334 335 335 335 335 337 333 333 334 333 333 331 331 329 327 327 327 327 327 325 326 327 329 332 333 334 334 336 337 337 340 342 341 340 340 339 337 337 337 335 335 334 333 332 332 331 331 330 330 330 331 333 337 335 334 332 331 330 329 329 329 329 328 328 328 328 327 327 326 326 326 326 325 325 325 325 324 324
333 332 334 332 331 332 334 334 333 335 334 335 334 332 332 333 332 333 333 331 330 329 328 326 325 327 326 325 325 324 328 332 334 334 335 337 337 339 342 340 340 340 339 337 337 337 337 335 335 334 333 332 332 331 331 330 329 330 333 336 336 334 333 332 330 329 329 328 327 327 327 327 327 327 326 326 326 326 325 325 325 325 324 324 323
334 332 333 333 333 333 333 332 331 332 333 333 332 331 331 333 334 334 332 331 330 330 328 325 325 323 326 324 323 323 325 331 334 335 334 335 337 339 340 342 340 338 339 339 339 337 337 336 336 335 333 332 333 332 331 330 330 330 333 335 335 334 334 332 331 329 328 327 327 327 327 326 327 327 326 326 326 326 325 324 324 324 324 324 323
334 335 334 332 332 331 332 332 332 333 332 332 331 332 332 334 335 333 333 331 330 329 328 327 324 324 323 323 323 323 322 329 332 335 334 334 336 338 339 339 341 339 340 339 339 339 338 336 336 336 336 333 334 332 332 331 331 330 330 334 333 334 334 333 332 331 329 328 327 327 327 327 327 327 326 325 324 324 325 324 324 324 324 324 323
331 329 333 330 330 330 331 332 332 332 332 331 331 330 331 331 333 333 331 330 329 328 331 326 325 325 324 324 323 322 321 329 329 332 334 334 335 336 337 337 338 339 338 340 339 339 339 337 336 336 336 335 334 333 333 332 331 331 330 329 330 332 334 334 332 331 329 328 328 328 327 327 326 327 326 325 325 324 324 324 324 324 324 323 323
332 331 331 331 333 333 331 332 333 332 330 329 329 329 329 330 330 328 331 329 328 327 325 324 322 323 324 325 327 324 325 324 326 328 333 334 333 333 335 336 336 336 337 341 340 338 337 338 337 336 336 335 335 335 334 333 332 330 331 330 330 332 332 334 333 332 331 330 328 327 327 326 327 326 326 325 325 324 324 324 323 323 323 323 323
333 330 331 331 331 329 331 331 330 330 329 327 327 327 329 328 331 329 329 328 327 325 326 321 321 321 323 325 328 328 328 327 328 326 330 334 332 332 333 334 335 335 336 337 339 339 337 338 339 338 336 336 336 336 335 334 333 331 331 331 332 332 332 333 333 333 332 331 330 328 327 327 326 325 326 325 325 324 324 323 323 323 323 322 322
333 332 332 331 330 329 330 332 329 327 329 330 328 327 327 328 329 329 326 327 325 326 322 319 319 319 324 325 324 327 327 329 329 329 328 328 333 332 332 333 334 334 336 335 336 336 338 337 338 338 338 337 336 336 336 336 334 333 332 332 332 331 332 332 335 334 333 332 331 330 328 328 326 325 325 325 325 324 324 324 323 322 322 322 321
332 334 333 331 332 330 329 330 329 326 327 328 327 328 327 329 326 329 329 327 329 329 327 327 327 326 327 323 324 326 326 328 329 329 330 327 326 331 332 332 333 338 335 334 335 334 337 337 338 337 336 337 338 336 337 337 335 334 333 333 332 332 332 332 332 334 335 333 332 330 330 328 326 325 326 326 325 325 324 324 323 322 322 322 322
331 330 330 331 331 329 329 330 329 328 327 327 327 327 328 326 325 328 329 328 328 328 325 326 329 330 328 327 326 325 325 327 327 330 328 328 327 328 331 332 332 333 333 333 334 334 334 336 337 336 336 335 338 338 337 337 337 335 335 334 333 332 333 333 333 333 334 334 333 331 330 328 327 327 325 325 325 325 324 324 323 323 322 322 321
332 330 328 331 330 329 326 327 329 328 328 329 328 327 327 328 327 328 329 329 328 328 327 326 328 329 330 329 331 327 327 328 327 326 326 327 329 330 329 330 333 333 331 332 332 333 333 334 334 335 335 335 336 338 338 339 337 338 337 335 335 334 334 334 334 333 334 335 334 332 331 329 328 327 327 326 326 325 325 324 324 323 322 322 321
328 330 331 329 328 327 326 327 328 328 326 325 326 325 326 326 327 327 328 329 330 327 327 327 326 325 325 327 330 329 331 329 325 325 325 324 325 328 328 327 330 334 333 332 332 332 332 333 334 334 334 335 335 336 337 337 336 338 338 337 337 336 336 335 334 334 334 333 335 333 332 330 329 328 328 327 326 325 325 324 324 323 322 322 321
323 327 324 331 327 326 327 328 328 327 326 325 325 328 329 327 326 327 327 327 326 329 329 327 324 320 324 326 325 327 329 330 329 326 324 324 324 326 328 327 326 327 332 335 334 333 332 332 333 333 333 333 333 334 334 334 334 336 338 338 338 338 338 337 336 335 334 334 334 335 333 331 330 329 329 328 327 326 325 324 324 323 323 322 322
323 322 324 324 328 328 328 328 328 326 326 327 327 329 328 327 327 325 327 324 323 327 326 323 319 317 317 318 320 324 329 328 327 329 327 325 324 326 329 327 328 327 329 329 331 334 334 331 332 332 333 333 333 333 333 334 334 336 338 340 338 338 338 339 338 336 335 334 334 335 335 333 331 330 330 329 328 327 326 325 324 323 323 322 322
323 325 321 322 323 324 326 328 328 328 326 324 325 325 325 325 325 323 322 325 325 327 326 323 318 320 319 316 314 313 318 322 325 328 328 326 326 330 330 327 328 329 329 328 327 330 336 334 332 331 331 332 332 332 332 333 333 334 336 338 340 340 339 339 340 339 336 335 334 334 335 334 333 331 331 330 329 328 327 326 325 324 324 323 322
322 321 319 319 320 319 318 323 325 326 326 325 323 322 322 324 323 323 323 319 323 325 327 324 323 319 313 313 314 313 311 314 318 324 328 329 331 330 330 331 328 329 328 329 329 328 329 329 331 332 333 332 333 332 332 331 333 332 331 334 336 337 340 340 340 341 338 336 335 335 335 336 334 333 332 331 330 329 328 327 325 324 324 324 322
320 320 321 319 319 319 321 318 318 320 324 323 322 323 324 324 323 322 322 320 319 323 325 326 325 325 318 315 312 310 311 314 318 319 325 326 330 331 333 332 330 329 328 329 331 330 329 331 332 333 333 332 333 334 332 332 331 335 333 333 334 335 338 341 341 341 341 339 337 337 335 336 335 334 332 331 330 329 329 328 326 325 324 324 323
319 320 321 320 318 319 318 316 317 318 319 317 318 318 319 323 324 325 321 321 320 320 321 325 325 324 324 320 318 313 314 317 315 311 319 324 326 330 330 330 331 331 329 329 330 332 331 330 331 331 333 332 333 334 333 332 335 333 333 333 331 330 328 332 341 342 343 341 340 339 338 337 336 334 333 332 331 330 329 329 327 327 326 325 324
319 319 319 321 319 317 314 314 317 316 317 314 315 316 317 318 320 321 322 322 321 318 319 320 322 322 323 322 322 321 320 315 312 313 311 316 321 323 325 329 330 331 331 331 331 331 331 331 331 332 331 332 332 333 332 333 334 333 334 332 329 327 325 323 326 338 342 340 340 339 339 339 337 335 334 333 332 331 330 329 329 328 327 326 325
319 316 316 318 316 315 314 312 313 315 316 313 313 314 315 318 318 317 318 318 318 318 317 318 316 316 321 319 320 322 321 322 321 315 311 311 314 320 325 325 326 329 331 330 332 331 330 331 331 331 330 333 331 332 332 332 332 331 331 328 327 327 325 324 321 320 327 339 340 339 340 339 338 336 335 333 332 331 331 330 330 329 327 327 326
317 317 316 315 317 315 314 314 312 312 315 314 315 316 314 313 314 315 313 313 315 315 314 313 316 316 318 317 318 317 318 320 319 319 314 311 310 314 316 322 325 327 326 329 330 330 330 331 332 331 330 331 332 332 333 332 334 332 330 324 325 325 325 323 319 319 317 324 333 340 339 339 339 337 336 335 333 332 331 331 330 329 328 328 327
314 314 313 315 315 315 314 314 315 316 315 312 312 312 313 313 313 313 313 313 313 313 312 311 311 311 313 315 315 315 316 317 318 318 318 316 310 312 313 314 313 317 323 326 326 328 329 329 329 330 329 331 332 332 331 332 333 332 330 325 325 324 323 320 316 315 315 320 328 333 338 339 338 338 337 336 336 334 332 332 331 331 330 329 327
315 314 314 314 314 316 313 315 316 318 316 314 313 314 314 313 314 314 314 313 313 312 312 312 310 309 310 310 309 311 309 308 308 311 311 308 307 308 309 309 316 314 318 323 324 327 327 326 325 326 327 327 328 331 331 330 330 332 327 325 323 324 321 318 317 315 315 322 327 331 335 338 340 339 338 337 337 335 334 334 333 332 331 331 330
315 314 314 314 314 314 316 314 316 314 313 314 315 315 313 315 314 314 312 312 312 312 310 310 311 310 309 310 309 310 310 309 309 309 307 307 307 306 305 306 307 308 320 320 322 321 321 322 323 324 325 326 327 328 328 329 329 328 325 323 323 320 318 320 319 318 315 321 324 329 335 338 340 340 340 338 338 338 337 336 335 333 332 332 331
313 314 313 313 314 312 312 311 311 313 313 312 313 314 314 313 312 312 311 311 310 310 309 308 309 309 308 309 309 310 310 310 311 309 308 308 305 301 304 306 305 305 306 319 315 320 321 320 322 324 324 325 326 326 327 328 329 324 325 322 321 319 318 317 316 314 313 312 317 324 328 333 339 341 339 338 338 337 337 334 329 325 324 328 330
313 313 315 316 314 315 316 313 312 312 313 313 314 315 313 313 313 312 312 311 312 310 309 309 308 308 309 307 307 308 306 309 308 308 308 307 304 303 303 304 305 304 306 305 307 309 310 316 322 320 317 316 320 326 326 328 328 322 324 327 319 318 317 314 313 313 311 310 309 312 315 321 325 329 331 334 335 327 324 323 321 319 318 320 325
315 315 317 316 314 315 313 312 313 313 312 312 315 313 314 314 315 313 313 312 311 311 309 309 311 309 307 309 308 307 307 307 308 309 308 308 307 305 304 301 300 301 302 304 305 306 306 308 312 310 311 312 313 316 324 330 326 319 321 325 323 316 315 314 313 312 311 311 310 310 310 313 315 317 317 317 316 319 323 322 321 319 317 318 318
316 316 315 317 316 316 315 313 313 312 312 313 313 312 313 313 313 311 311 316 310 310 309 309 307 307 307 308 306 306 308 307 308 308 308 308 309 309 307 302 300 298 301 301 303 304 309 307 308 310 311 311 312 312 317 326 325 320 324 324 325 324 317 313 312 311 310 310 309 308 309 311 311 311 313 315 318 319 320 320 319 317 316 317 317
317 316 315 316 317 316 315 314 314 313 313 313 313 313 312 312 311 309 309 311 312 311 310 309 310 309 309 308 305 305 307 307 307 309 308 307 309 307 307 306 303 300 300 298 300 302 306 309 306 307 310 311 311 313 312 318 321 321 322 322 324 324 323 318 312 311 311 308 306 306 306 308 310 311 312 315 316 318 317 317 316 315 316 319 318
318 317 315 316 317 322 315 314 314 313 313 313 313 312 311 312 311 311 312 311 309 310 310 310 309 309 308 308 307 307 307 307 308 308 307 307 306 306 305 306 306 303 302 299 299 303 304 306 308 307 309 309 311 312 313 311 315 317 314 315 315 316 313 313 314 311 311 308 306 306 308 308 308 310 311 314 315 316 315 315 314 314 316 319 317
318 316 314 316 317 317 316 315 314 314 313 311 312 311 311 311 310 311 312 310 309 308 310 309 309 308 308 309 308 307 308 307 307 309 308 307 306 306 305 306 306 305 303 302 298 300 306 304 306 309 307 308 309 309 311 312 313 313 311 311 311 312 311 312 311 311 311 310 309 308 311 313 310 309 310 313 315 315 314 314 316 315 315 315 314
318 317 315 316 317 316 316 316 315 314 313 312 311 311 309 310 310 312 310 310 310 309 310 309 313 310 307 306 306 306 305 305 306 309 309 307 306 306 306 306 305 305 304 302 300 300 304 305 305 305 307 307 308 307 307 309 311 311 309 310 311 311 312 313 311 310 309 308 309 309 309 310 310 310 308 308 310 312 312 313 314 313 313 312 313
318 318 316 316 316 317 316 316 316 314 313 312 312 311 309 310 309 310 309 309 310 310 309 308 310 308 307 307 305 306 305 305 305 304 305 306 308 306 306 305 304 304 303 302 300 301 302 305 305 306 307 307 307 306 306 306 307 309 311 310 310 310 310 311 311 309 307 307 306 306 306 306 307 308 305 304 307 307 308 309 310 309 310 310 309
317 318 318 317 316 317 316 315 315 315 314 313 312 311 310 309 309 311 310 308 308 309 308 307 307 311 307 306 307 307 307 306 304 305 305 304 303 303 305 306 304 305 305 302 300 300 299 302 303 306 306 307 305 305 304 305 305 306 307 307 308 308 309 309 308 310 307 307 305 304 304 304 303 303 304 304 304 305 307 307 307 307 307 307 305
318 318 317 317 316 316 317 316 314 315 315 314 313 312 311 310 310 310 311 307 307 307 307 307 307 307 307 305 305 306 307 304 305 305 305 305 304 302 303 302 302 302 303 304 301 299 299 301 303 304 305 306 305 306 306 306 306 306 305 306 307 308 309 308 308 310 307 305 304 305 305 305 304 303 303 304 304 304 304 304 305 305 305 304 305
318 318 318 318 316 317 318 317 316 316 316 315 314 313 313 311 311 311 311 309 308 307 308 308 307 307 305 304 305 306 306 304 305 304 304 304 304 303 301 301 301 302 303 302 304 302 300 300 300 303 304 302 303 305 305 306 305 305 306 306 305 306 306 307 307 307 308 306 305 305 305 305 304 304 304 303 304 304 304 305 304 304 304 304 304
320 319 318 317 316 318 318 318 318 317 317 318 317 317 314 313 312 312 312 311 310 309 309 309 311 307 306 305 305 306 305 304 304 303 303 302 303 302 301 301 301 302 303 302 301 301 299 298 299 300 301 301 303 304 305 304 304 304 304 304 305 306 306 307 309 310 307 306 306 307 307 306 306 305 305 304 304 304 304 304 304 304 303 304 304
317 318 318 316 317 317 318 318 318 318 318 318 318 318 317 315 313 312 312 312 311 310 309 309 309 308 307 306 307 306 305 303 302 303 302 302 303 301 301 301 301 300 299 300 301 300 300 299 298 299 299 301 301 301 303 304 303 302 302 303 304 305 305 305 306 308 311 311 311 311 307 306 307 307 306 305 305 304 304 304 304 304 304 304 304
316 316 314 316 316 317 318 318 319 319 319 318 318 317 318 317 314 313 312 311 311 310 309 310 309 308 308 307 306 305 304 303 303 302 302 301 301 297 298 296 296 295 295 296 297 296 296 296 296 297 298 299 300 299 301 303 303 302 300 300 300 302 304 303 306 308 307 307 306 305 305 304 305 305 305 305 305 305 305 304 304 305 304 304 303
316 315 315 316 316 316 316 317 317 317 317 317 317 317 318 318 317 314 313 312 312 311 310 309 308 307 308 307 306 305 304 303 303 302 300 296 296 294 294 295 295 294 294 295 295 295 295 295 294 294 295 296 296 298 300 300 299 299 301 301 299 299 301 302 303 303 304 305 304 306 306 307 306 305 305 305 304 303 303 303 305 306 306 304 303
315 315 315 315 315 315 315 315 315 315 316 316 317 317 317 317 316 314 314 313 312 311 310 310 308 307 307 306 305 305 310 310 305 303 301 300 296 293 293 294 296 294 293 293 294 293 293 293 293 294 293 293 294 294 294 294 294 295 298 298 297 298 299 300 302 304 305 304 304 304 305 306 306 306 306 305 307 306 306 306 305 306 305 303 303
314 313 313 314 315 315 315 314 314 314 315 316 315 309 310 316 315 316 314 312 312 311 310 309 308 308 306 305 310 315 308 305 300 296 295 296 298 297 293 294 294 293 292 292 291 292 293 291 290 291 291 291 291 292 293 294 295 296 296 296 295 296 297 297 299 300 303 301 300 299 301 304 305 304 305 305 306 307 306 307 309 308 306 304 303
313 312 313 312 313 314 315 314 313 314 316 316 307 303 301 302 312 313 312 312 312 311 309 308 307 306 306 306 307 307 305 303 299 294 294 294 294 295 296 297 298 294 292 291 291 292 292 292 292 291 290 290 291 292 292 293 293 294 294 294 294 294 294 293 293 297 300 300 298 297 298 301 303 302 303 303 305 305 306 306 303 302 302 303 303
313 311 312 314 314 313 314 314 314 315 315 310 303 302 301 300 303 312 312 313 311 309 309 308 306 305 304 305 305 306 303 302 302 300 298 296 294 293 293 293 293 293 295 294 293 291 291 291 291 291 291 291 291 292 292 293 293 293 294 294 294 293 292 292 292 292 297 299 296 295 296 299 301 300 300 302 303 304 305 303 302 302 301 302 301
311 311 313 313 313 313 313 312 313 314 314 307 302 301 301 299 298 305 312 312 310 309 309 308 306 304 303 304 305 306 305 308 307 302 301 299 297 294 294 294 293 292 290 290 291 295 293 292 291 291 292 292 292 293 294 294 294 294 294 293 293 292 292 291 292 293 294 297 295 294 294 296 298 298 298 300 301 302 303 301 301 301 301 301 301
306 306 307 310 311 310 312 313 313 313 313 308 302 301 300 298 297 302 308 309 308 308 307 307 306 304 304 304 303 304 304 305 303 301 301 298 298 298 295 292 292 294 293 292 291 291 292 293 292 291 293 294 294 295 296 296 295 294 294 293 292 291 291 292 293 293 294 297 294 293 293 294 296 296 296 297 300 301 301 301 300 300 300 300 300
304 304 305 304 304 306 307 308 309 308 310 304 300 300 299 297 297 302 306 306 305 304 304 304 304 303 303 303 302 302 302 302 304 302 301 298 296 297 295 294 294 294 295 295 294 293 293 293 292 292 293 294 294 295 296 296 296 296 296 295 294 293 293 293 292 293 293 295 295 293 291 294 296 295 296 297 298 299 300 300 300 300 300 300 300
304 304 304 303 302 302 304 305 307 299 297 296 298 298 296 294 299 304 304 303 303 302 300 300 301 302 302 301 300 301 302 301 297 296 297 299 297 295 294 293 292 292 293 297 296 295 296 295 294 294 294 295 294 293 293 293 293 293 294 294 292 291 290 289 289 290 290 293 295 293 291 292 295 294 295 296 297 297 298 299 299 300 300 300 300
302 302 302 303 302 302 302 303 299 295 292 292 293 293 294 295 298 301 300 300 300 299 300 301 302 303 303 302 301 301 301 300 295 292 293 295 296 294 292 291 292 292 292 294 295 294 292 292 291 291 291 291 291 292 292 292 292 292 290 289 288 289 288 287 288 288 289 290 292 294 293 291 293 294 294 295 295 295 296 297 299 299 299 300 299
301 301 302 300 299 299 298 298 296 293 290 292 293 294 295 296 298 299 298 299 299 299 301 301 302 303 304 309 305 302 300 298 290 289 290 295 292 290 290 289 289 288 289 291 293 292 292 292 291 291 291 291 291 292 292 292 292 293 290 288 289 289 288 288 287 288 289 291 291 294 291 291 293 293 293 294 293 294 296 297 298 299 301 299 296
301 300 299 298 296 296 295 295 297 292 290 292 292 293 294 295 298 299 299 298 295 294 295 294 294 294 295 295 297 296 295 291 289 289 290 292 290 289 288 287 287 286 287 287 287 288 288 288 288 289 289 291 291 290 292 292 292 293 291 290 290 289 288 288 288 288 287 289 291 293 290 291 291 292 291 291 289 292 294 296 296 300 301 299 298
Wind_Speed
3 2 4 4 4 3 3 3 3 2 2 3 3 6 5 4 2 2 1 2 1 3 4 3 2 1 1 0 1 1 3 6 7 7 5 5 5 7 10 11 9 10 12 12 13 13 12 12 12 11 11 9 9 8 9 7 6 6 6 10 11 10 9 7 7 7 8 8 8 8 8 9 10 10 10 10 11 11 11 11 11 11 11 12 12
2 3 5 4 4 3 3 2 2 3 3 2 4 3 3 2 1 1 1 3 1 2 2 5 5 3 2 2 2 2 2 4 8 7 6 5 5 6 11 10 10 9 10 11 12 13 12 12 12 12 12 11 9 9 9 8 7 7 6 8 10 11 9 8 7 7 7 7 8 8 8 8 8 9 9 9 9 10 10 11 11 11 11 11 11
2 2 4 4 3 4 4 3 1 2 3 2 2 1 1 3 2 3 3 2 2 1 2 3 4 5 2 3 5 3 2 5 7 7 8 6 5 5 8 11 10 10 10 10 10 12 13 12 13 12 12 12 10 9 9 9 8 7 8 8 8 9 11 9 8 7 7 7 8 8 8 8 8 9 9 9 9 9 10 10 10 10 10 11 11
1 2 2 3 2 3 4 4 4 4 3 2 1 3 1 1 2 1 3 0 3 3 3 2 2 3 4 2 3 4 3 5 7 7 8 8 6 6 6 8 11 10 10 10 10 10 12 12 12 12 13 12 11 11 10 9 9 9 8 9 7 8 9 10 9 8 6 7 7 7 7 7 7 8 9 9 9 9 9 9 10 10 10 10 10
4 3 5 5 1 2 2 3 2 1 2 2 3 2 1 1 2 3 3 1 2 4 2 0 1 2 2 4 3 5 3 4 7 7 8 8 7 7 6 7 7 9 10 8 9 10 10 12 11 12 13 12 12 12 11 11 10 10 10 9 7 5 9 11 10 9 8 7 7 6 7 7 7 7 8 8 8 9 9 9 9 9 9 10 10
3 6 3 5 4 4 3 3 3 3 2 2 3 2 0 1 1 2 3 1 3 3 3 3 3 2 3 2 5 4 2 2 3 5 8 7 8 7 6 6 6 6 6 9 8 9 9 10 11 11 12 12 12 12 12 12 12 10 9 10 10 8 7 11 10 10 9 8 7 6 6 7 7 7 7 7 7 8 8 9 8 9 9 9 10
3 4 0 4 1 3 2 1 1 1 2 2 3 2 0 1 1 4 2 1 3 4 3 1 1 1 2 4 5 4 4 5 6 5 1 5 7 6 6 6 6 6 6 5 8 10 10 10 11 10 12 12 12 12 12 12 12 12 11 10 11 9 8 9 12 11 10 10 8 7 6 6 6 6 7 6 7 7 8 8 8 9 9 9 9
7 4 5 1 1 1 1 1 1 2 2 4 3 3 3 1 1 1 1 2 3 5 5 2 3 4 3 5 4 4 5 6 6 5 4 3 2 4 7 6 7 7 7 6 5 7 11 11 10 11 11 12 12 12 11 12 12 12 12 11 11 10 9 9 12 12 12 11 10 8 7 6 6 6 6 6 6 6 7 7 8 8 8 8 8
5 7 6 5 3 3 2 2 0 1 1 1 2 3 3 2 1 3 0 2 2 3 4 4 4 3 4 4 4 3 5 4 4 4 5 5 5 5 2 5 7 8 7 7 6 6 10 12 10 11 11 11 11 11 11 11 12 12 12 12 10 10 10 10 10 11 12 11 10 9 8 7 6 6 6 7 6 6 6 7 7 7 7 7 8
5 5 5 5 5 5 5 4 2 1 1 2 0 1 2 2 2 1 2 3 3 2 1 2 2 1 3 4 2 3 3 2 3 4 5 4 4 3 6 4 2 4 6 6 7 6 6 10 12 10 12 11 9 11 11 11 12 13 13 13 12 11 11 11 10 9 10 11 10 9 10 8 7 6 6 6 7 7 7 6 7 7 7 7 7
4 5 5 5 4 4 2 1 3 2 1 2 0 1 3 2 2 2 2 1 3 2 1 1 2 2 2 2 3 3 3 2 2 2 3 3 2 4 2 5 6 6 4 6 7 7 7 6 6 6 8 14 10 10 11 11 12 13 13 13 13 13 12 12 11 11 9 11 11 10 10 9 9 8 7 7 7 7 7 7 7 7 7 7 7
4 4 5 5 4 3 1 2 1 3 2 2 0 2 2 2 3 3 2 1 2 3 3 1 2 3 2 2 2 2 4 4 3 2 1 3 4 4 2 2 6 7 9 8 6 8 7 7 7 7 6 9 12 9 11 10 9 12 14 14 14 13 13 12 12 12 12 11 12 12 10 11 10 10 10 9 8 8 8 8 8 8 8 7 8
3 3 4 5 3 2 2 1 0 1 3 3 3 0 1 2 3 2 2 2 1 0 2 2 2 1 3 2 2 2 2 1 2 4 3 3 3 4 3 2 3 5 8 7 6 6 6 7 7 6 7 6 8 11 11 11 10 11 12 14 14 12 14 14 13 13 13 13 12 13 12 12 12 12 12 11 10 9 9 9 9 8 8 8 8
0 3 4 5 6 4 4 4 2 1 1 2 2 2 2 1 3 1 2 2 2 2 2 3 1 2 1 1 1 1 2 1 1 3 4 4 4 4 4 2 2 3 2 5 6 5 6 6 6 7 7 7 6 6 7 8 9 12 12 12 14 13 13 15 13 14 14 14 12 13 12 13 13 14 13 12 11 11 10 10 10 10 9 9 9
3 4 5 5 5 5 4 4 3 2 2 2 3 3 3 3 4 5 5 4 3 3 6 1 3 0 1 2 1 1 2 2 1 0 2 3 4 4 4 3 1 2 4 5 4 5 6 5 5 5 4 6 5 6 6 7 9 12 13 13 12 13 13 14 15 15 16 16 15 14 13 14 14 14 14 13 13 12 11 11 11 11 10 10 10
4 5 5 5 5 4 3 3 3 3 3 3 2 2 1 1 1 2 4 2 0 1 2 3 1 6 1 1 1 1 0 2 0 1 1 1 2 3 3 3 2 2 2 5 5 4 3 3 4 6 6 4 3 5 6 5 8 11 13 13 13 12 13 14 16 17 17 17 16 16 13 15 15 15 14 14 13 13 12 12 12 11 11 11 11
4 4 5 6 5 6 4 4 4 3 2 2 2 2 3 3 2 2 3 4 2 1 2 1 0 2 3 2 2 1 1 1 1 1 1 1 1 2 2 2 2 2 3 3 4 4 3 4 5 4 5 9 9 6 7 7 6 6 8 10 12 12 13 15 16 16 17 18 18 17 16 15 16 15 15 14 14 14 13 13 13 13 12 12 12
6 6 6 4 5 5 4 3 5 6 5 5 5 3 1 1 2 3 2 2 4 3 1 3 3 2 2 1 3 3 4 1 1 1 1 1 1 1 1 3 3 2 2 2 3 3 2 2 2 4 3 3 5 6 7 7 7 7 6 8 13 14 14 14 16 17 17 18 18 18 18 17 16 15 15 14 14 15 15 14 14 12 13 13 12
5 5 4 4 5 5 5 4 3 6 5 6 5 4 3 4 4 3 2 3 2 3 5 3 2 2 1 1 2 1 2 2 1 1 1 1 2 2 2 2 2 1 2 2 1 1 1 1 2 2 3 3 2 4 5 6 7 7 10 10 13 14 16 15 15 16 17 17 17 18 18 18 17 16 15 15 16 16 16 15 14 13 13 13 13
6 5 4 5 5 6 5 5 6 5 6 5 5 5 5 4 4 3 3 3 3 4 3 2 4 2 2 2 2 2 2 2 2 1 2 2 1 2 1 2 3 2 1 1 1 1 2 2 1 2 1 2 3 3 5 5 4 5 5 8 11 15 16 17 16 15 14 14 16 16 17 18 17 15 15 15 16 16 17 17 16 14 15 14 14
6 5 5 5 4 4 4 5 5 4 5 5 4 4 4 4 5 5 5 5 4 3 4 3 3 2 2 1 2 1 2 2 2 2 1 1 1 1 3 2 2 5 3 2 2 2 2 1 1 0 2 1 3 5 5 5 4 4 5 6 8 11 14 15 16 15 13 13 10 13 15 17 16 16 15 16 17 17 17 17 17 16 15 15 15
5 5 4 4 4 4 4 4 4 4 4 4 4 4 4 4 4 4 4 5 4 4 4 3 4 3 2 4 2 1 1 1 0 0 0 0 0 0 2 3 3 2 1 4 3 2 3 3 2 3 3 3 3 4 4 4 4 5 6 11 8 7 10 12 13 12 12 13 11 13 14 15 16 16 17 17 19 19 18 18 18 17 17 17 16
6 4 5 4 4 4 4 4 4 4 4 4 4 3 3 4 4 5 5 5 5 5 6 5 4 5 5 5 5 4 4 3 3 3 3 2 1 2 2 2 3 3 3 3 4 3 3 3 3 4 5 5 5 3 3 4 5 6 10 10 9 8 7 8 11 13 13 11 11 13 15 16 15 16 18 18 20 21 20 20 20 19 18 18 18
5 5 4 4 4 4 4 4 4 4 4 3 3 4 4 4 5 5 5 4 5 5 4 5 5 5 5 6 5 4 4 4 2 4 5 2 2 1 3 3 2 1 2 2 3 3 3 4 5 4 4 3 4 4 4 5 6 8 9 8 7 7 8 9 10 10 11 12 13 14 16 16 16 16 17 19 20 21 21 22 22 21 19 19 20
5 6 4 4 4 3 4 4 4 4 3 4 4 4 4 4 4 4 4 4 4 4 5 4 4 4 4 3 5 5 5 3 4 3 3 5 5 4 2 1 0 3 2 0 2 2 3 5 5 2 4 4 5 5 4 5 3 7 9 6 10 8 8 9 10 10 11 12 12 12 12 12 14 16 17 18 18 20 20 19 19 18 17 17 17
6 5 5 5 3 3 4 4 4 3 3 3 4 3 4 5 4 4 4 3 4 4 4 4 4 4 4 6 5 5 4 4 4 6 5 4 4 3 1 2 1 2 2 3 5 6 4 3 2 4 4 5 6 4 3 3 2 5 4 1 2 3 6 7 9 9 10 10 11 11 10 10 10 9 10 13 12 11 14 16 16 18 18 17 16
7 6 5 5 4 3 4 5 4 3 3 2 2 3 4 4 4 3 3 4 4 5 4 4 4 4 4 4 5 4 4 5 5 5 4 4 2 1 4 5 5 4 4 3 3 4 4 3 5 5 5 6 6 7 6 1 3 6 3 1 2 7 8 8 7 9 9 9 11 11 10 9 10 10 11 10 11 10 6 11 16 16 17 17 17
7 7 6 6 4 4 4 4 4 3 2 1 1 3 4 4 4 3 3 2 3 4 2 3 3 3 4 3 5 4 4 4 4 4 4 3 4 2 3 3 5 4 4 4 4 2 4 5 2 6 7 6 5 7 9 6 3 3 2 2 2 1 5 8 8 7 7 8 9 10 10 11 11 11 11 10 10 11 10 9 11 15 17 18 17
7 7 7 5 6 5 5 4 4 4 2 1 1 1 4 4 4 4 3 1 3 3 1 3 1 1 3 4 4 4 4 3 3 4 3 4 4 4 3 2 2 3 2 4 2 2 3 5 5 3 6 5 5 5 6 5 5 5 3 3 3 2 2 3 7 8 9 10 10 11 12 12 12 11 11 11 11 12 12 12 11 11 14 16 17
7 6 6 6 6 6 6 5 4 4 4 3 2 3 3 3 4 3 4 3 3 3 2 2 1 1 2 4 3 4 3 3 2 1 2 3 3 3 3 3 4 5 1 2 3 1 2 2 2 3 4 6 6 5 4 4 5 3 3 3 4 4 4 4 3 5 7 8 9 11 12 13 13 13 13 13 12 12 12 12 13 13 12 14 16
7 6 6 5 6 5 5 5 5 4 4 3 1 2 3 3 3 4 2 3 3 1 1 4 2 2 0 1 1 2 1 2 2 2 1 2 1 1 1 2 3 3 3 1 2 3 2 5 3 3 4 4 5 5 4 4 4 4 5 5 4 6 5 4 5 6 7 8 9 10 11 13 14 14 14 14 14 14 13 12 13 13 13 13 14
7 8 6 6 6 6 5 6 5 4 4 4 2 3 1 2 3 3 4 4 4 3 2 2 3 2 1 1 3 1 2 3 2 1 2 2 2 1 0 0 0 1 1 1 1 5 3 3 4 6 7 8 8 7 7 5 5 7 4 4 5 7 5 4 5 7 9 10 11 11 12 13 13 13 14 14 15 14 14 13 12 12 12 12 13
8 7 7 7 6 6 6 5 6 4 5 4 3 3 3 1 2 2 4 4 3 3 3 2 1 3 3 2 3 3 2 1 2 4 3 0 1 1 1 0 1 2 0 0 0 4 4 2 3 4 5 6 7 6 8 7 8 8 8 6 6 5 5 6 5 8 10 11 11 12 12 11 11 12 13 14 14 14 14 13 12 12 12 12 13
5 8 9 6 5 6 6 6 5 4 5 4 4 3 4 2 3 2 4 4 3 2 3 4 3 4 4 3 3 3 2 2 0 1 1 3 1 0 2 1 2 3 2 1 1 1 4 3 4 4 4 4 4 3 4 7 7 7 8 7 6 5 6 6 6 6 10 11 11 8 8 9 10 11 13 14 14 14 14 14 14 13 13 13 13
4 5 6 5 3 5 6 5 2 3 6 6 5 4 4 5 4 4 4 4 4 3 4 5 4 3 3 2 2 3 2 2 0 1 2 2 2 2 1 1 2 3 3 2 0 2 4 4 3 3 2 2 3 5 4 5 6 6 7 6 6 5 5 5 6 5 8 11 9 7 9 9 9 10 10 11 12 13 13 13 13 13 13 14 14
3 4 6 9 9 7 6 5 2 4 3 3 3 6 7 6 6 6 4 5 5 4 4 5 4 4 4 3 2 2 2 2 0 1 2 3 3 3 4 4 4 4 3 3 2 0 1 3 2 2 3 5 4 4 6 6 7 7 5 6 5 5 5 6 4 4 4 7 9 11 12 11 9 8 8 9 10 12 13 14 14 14 14 14 14
1 2 6 5 5 7 8 7 5 3 4 7 6 5 7 5 8 7 7 6 6 5 4 5 5 5 4 5 4 3 3 3 1 1 1 3 2 4 4 4 4 3 4 4 3 1 2 4 5 3 3 3 4 5 5 6 6 5 5 6 7 7 7 6 5 6 8 10 9 8 7 9 10 8 7 8 9 11 12 13 13 13 13 13 14
2 2 6 5 7 5 4 5 5 4 6 7 6 8 8 7 6 7 7 7 7 7 5 4 5 5 5 5 4 4 4 4 3 0 1 1 3 4 5 5 5 5 5 6 5 5 5 4 3 6 4 5 5 4 5 6 7 7 6 5 4 5 5 6 6 5 3 3 4 5 7 8 9 11 11 10 10 11 12 13 14 14 14 15 15
2 4 3 4 4 5 6 6 6 4 6 7 7 10 9 8 7 7 7 7 7 7 6 6 6 5 6 5 4 4 4 4 3 2 2 3 3 3 3 3 4 4 5 4 5 5 4 5 4 3 5 5 4 5 5 5 5 4 5 7 6 5 4 4 6 5 4 5 5 7 8 9 11 10 10 11 11 11 12 13 14 16 16 17 17
2 3 2 3 4 5 5 5 4 6 7 6 6 6 9 9 7 7 8 8 9 8 7 6 5 6 6 5 4 4 5 3 3 2 3 3 2 2 2 3 3 3 3 4 5 5 5 5 3 5 4 4 6 3 4 6 7 7 7 6 7 8 8 8 6 8 5 4 6 6 7 9 9 10 12 10 8 9 11 12 13 15 16 16 16
3 3 3 3 3 3 2 2 3 4 5 7 8 8 7 5 3 6 8 8 7 8 7 7 6 7 6 6 5 4 4 6 7 6 5 5 2 0 2 1 1 2 3 3 3 5 5 5 6 5 6 7 6 7 8 6 5 5 4 5 6 7 7 8 9 8 7 8 8 8 7 7 7 7 6 5 7 8 6 7 8 11 13 14 16
4 3 3 4 4 4 4 4 4 5 6 5 7 11 8 4 5 5 3 3 5 6 7 7 7 7 7 6 6 9 9 9 9 9 8 6 4 3 2 1 1 2 2 3 4 3 3 5 5 5 6 7 6 5 5 4 4 5 8 7 8 8 9 8 6 3 6 9 9 9 8 6 7 7 6 6 5 5 5 6 5 7 9 12 13
4 4 3 4 4 5 5 4 4 5 6 6 11 10 10 8 4 4 4 4 5 6 7 8 7 7 6 7 7 8 9 7 8 9 8 7 5 3 4 6 5 3 4 4 4 3 3 4 4 4 5 7 7 4 4 6 5 4 4 5 6 6 5 6 9 7 3 11 10 11 11 7 7 8 7 6 6 7 7 8 12 14 13 12 14
4 3 3 5 5 5 5 5 6 6 6 9 12 12 12 12 11 8 7 7 5 3 5 7 7 7 7 7 6 5 5 6 5 5 3 3 4 5 6 9 9 6 3 3 4 4 3 5 6 6 5 6 7 5 6 5 5 5 5 6 5 4 7 7 5 7 5 8 9 10 12 7 8 9 10 8 7 5 6 10 16 19 22 23 18
3 3 5 4 6 6 6 6 7 7 6 10 13 13 13 12 13 10 6 6 7 8 6 7 6 6 6 6 5 4 4 8 5 3 3 3 6 8 6 4 4 5 8 8 7 6 4 4 5 7 6 5 7 6 3 3 3 7 7 7 5 4 4 6 8 8 7 5 8 9 13 8 6 9 10 9 7 7 8 9 13 15 18 18 20
1 2 3 5 5 5 5 7 7 6 6 9 13 13 13 11 10 9 5 5 6 8 8 8 7 7 6 6 6 5 4 3 3 3 3 2 1 0 1 2 2 4 6 7 9 9 7 6 6 8 7 4 8 6 6 6 7 8 7 9 5 6 6 9 9 9 8 4 7 8 12 8 6 8 9 8 7 8 6 9 14 16 17 18 18
4 5 4 4 2 3 4 4 4 2 3 10 13 14 12 7 10 8 5 5 5 5 6 5 6 5 5 5 5 5 4 3 3 3 2 3 3 3 2 2 3 2 2 2 2 3 3 4 6 7 8 7 8 8 7 7 8 8 6 6 5 7 9 8 7 6 8 4 5 4 13 9 7 10 9 7 6 6 6 10 15 16 17 18 18
4 4 5 4 5 5 4 4 1 2 0 4 2 2 5 8 10 6 6 6 6 5 5 4 5 5 6 6 4 2 1 1 4 6 4 3 2 2 2 2 2 1 1 3 4 5 4 3 3 3 4 4 6 5 5 6 6 6 7 7 5 5 8 9 10 6 6 3 4 7 10 10 5 10 10 5 5 7 6 6 10 15 17 18 20
3 4 4 4 4 4 4 2 3 1 2 2 7 10 10 11 8 6 6 6 6 6 6 5 5 4 3 3 3 3 4 4 8 9 6 4 1 2 2 2 2 2 4 4 5 6 10 9 7 5 4 6 7 8 8 8 5 5 5 6 6 5 7 10 10 7 7 3 2 4 9 11 5 6 9 7 9 9 8 8 7 10 15 18 15
3 4 3 3 5 4 4 4 3 3 3 2 8 11 12 11 9 7 6 7 6 6 5 4 4 4 3 4 4 2 2 3 7 9 8 4 3 3 3 3 3 3 3 3 4 5 8 9 10 11 12 12 13 13 12 12 11 8 7 10 7 6 9 7 10 7 7 4 4 5 9 9 8 7 9 7 5 3 5 5 6 8 12 10 10
2 2 4 6 5 5 5 4 7 7 4 4 5 10 12 12 9 6 6 6 6 4 5 5 5 6 6 8 9 8 7 8 10 10 10 7 4 3 3 3 3 4 4 1 3 5 5 6 6 7 8 10 9 8 9 14 14 11 7 8 6 6 9 8 8 8 9 3 4 3 5 6 5 4 4 6 6 4 3 5 7 6 6 5 5
Wind_Direction
191 165 117 106 111 106 121 114 104 106 109 101 90 122 175 167 177 248 347 303 283 291 298 276 208 188 175 190 126 203 229 119 134 148 150 157 165 172 169 167 170 172 169 168 172 167 170 170 171 171 176 178 181 168 167 171 167 153 164 153 142 136 128 119 116 115 112 112 112 109 106 108 107 106 104 102 100 99 100 100 98 95 90 91 94
131 121 120 134 133 133 115 112 112 124 127 136 95 143 154 77 31 304 251 245 226 294 344 331 301 230 223 236 269 167 190 151 149 154 149 164 168 174 174 171 176 174 172 177 178 172 174 176 172 172 176 180 182 178 175 169 174 167 150 143 145 142 135 130 130 126 123 118 117 117 114 114 112 110 110 110 107 104 104 105 103 101 98 93 93
86 122 113 125 121 130 128 123 190 194 141 136 141 139 54 115 169 220 231 267 279 342 16 327 320 314 238 204 230 260 172 165 148 147 153 167 170 172 181 177 181 180 176 184 185 178 180 180 175 174 174 179 181 178 180 170 178 184 156 133 147 150 144 142 140 137 131 130 124 122 122 119 120 117 114 115 114 109 107 106 107 106 108 107 105
75 24 25 86 96 117 141 150 192 201 143 136 113 99 92 64 211 257 262 235 330 321 286 315 311 357 313 242 243 233 227 167 151 159 160 161 177 176 177 185 185 182 188 186 182 187 185 181 182 177 176 177 180 180 180 180 185 183 174 148 146 150 158 151 148 147 145 141 137 132 129 128 125 125 121 118 119 120 117 114 112 112 110 111 110
69 38 353 11 223 228 175 175 163 117 112 116 87 85 99 197 193 210 248 321 302 293 292 38 319 37 1 4 335 261 268 187 171 161 162 165 173 175 178 182 182 188 186 186 180 188 190 183 187 180 177 179 179 181 183 184 187 193 184 172 169 169 171 161 158 149 154 151 145 145 139 135 134 130 130 127 123 123 122 122 120 116 115 113 116
109 92 129 219 207 184 158 136 147 130 116 94 96 74 351 326 143 242 276 311 273 253 254 299 320 23 25 4 17 338 350 13 296 171 165 167 174 176 178 174 175 180 188 187 182 186 189 185 189 182 180 185 183 185 185 184 185 191 196 180 174 182 182 166 161 159 158 159 156 153 148 142 143 139 140 138 134 130 131 127 126 124 120 118 116
84 82 354 247 331 21 18 92 88 78 104 131 128 111 155 221 209 184 260 5 316 281 229 194 318 358 28 15 14 355 4 14 35 24 142 175 167 171 173 172 171 175 184 189 189 189 191 189 192 186 186 186 194 190 189 188 187 190 197 186 176 181 190 179 172 168 164 164 162 160 161 155 151 151 150 149 147 145 139 140 134 130 128 126 125
129 154 173 291 293 215 208 187 149 116 138 151 130 152 174 202 355 21 40 337 24 9 3 358 359 354 28 47 27 21 24 28 21 9 55 137 172 182 168 173 177 182 183 183 188 194 193 193 196 189 189 192 199 197 195 191 190 193 196 198 188 185 191 186 179 177 172 168 166 165 169 169 165 162 161 158 156 153 150 146 143 138 136 132 133
142 154 153 181 195 173 202 230 140 107 74 99 136 158 158 128 74 313 32 80 66 28 4 4 345 17 16 46 36 19 47 36 11 7 25 44 133 187 197 190 185 185 186 180 186 192 197 194 200 191 193 201 203 204 198 196 193 194 197 201 200 189 192 195 194 190 180 174 173 166 174 174 175 174 171 165 165 160 157 153 149 145 140 138 134
193 162 152 178 212 220 201 168 140 94 85 99 93 101 83 85 62 2 37 78 68 53 357 312 290 37 38 43 1 34 55 47 35 11 19 32 11 107 171 183 222 218 189 185 186 191 196 198 198 194 194 203 211 203 207 201 194 195 198 200 200 198 197 198 199 200 198 188 180 174 172 173 177 187 182 176 173 171 168 165 160 154 150 149 144
180 163 163 175 193 234 243 192 118 100 95 96 279 259 113 97 115 17 328 92 129 137 181 241 292 34 52 23 10 358 15 33 74 53 5 7 10 1 105 177 170 207 232 202 190 189 192 193 193 195 198 201 209 205 208 206 199 200 200 200 202 201 200 201 199 199 201 198 189 182 178 178 179 187 195 187 180 178 177 175 170 167 163 162 159
157 172 171 169 189 190 245 291 117 129 122 118 203 280 124 139 131 150 164 266 162 168 155 148 354 25 10 335 27 14 339 347 351 58 8 344 352 349 27 145 192 199 190 211 209 191 189 189 193 194 195 206 207 206 206 207 205 210 203 204 207 205 201 200 199 198 201 201 199 187 186 184 180 185 195 194 190 185 184 181 179 181 174 175 171
63 98 133 168 156 142 148 233 241 135 147 162 179 324 41 113 124 115 179 211 332 66 92 129 106 6 355 328 289 244 202 261 332 350 355 336 345 349 328 54 88 158 222 205 199 195 190 184 190 193 200 198 208 209 207 206 205 213 214 209 212 210 199 199 199 199 200 205 201 197 193 190 185 186 193 196 195 191 188 185 184 189 183 183 181
89 59 42 89 141 148 156 178 189 183 174 159 136 152 153 170 104 91 38 140 225 206 193 115 27 176 152 291 312 273 241 162 36 322 327 333 348 336 322 25 90 130 127 133 180 189 192 188 194 196 200 203 198 203 209 213 212 211 217 220 216 215 206 199 202 200 199 206 205 202 193 193 191 190 192 197 196 196 192 189 189 190 189 189 188
108 79 77 67 80 117 149 158 168 164 143 147 169 162 166 170 166 156 180 209 207 182 207 237 145 286 126 83 321 7 327 353 354 318 276 309 324 324 343 334 44 67 106 99 105 166 180 177 184 205 228 220 199 198 205 210 213 212 213 220 224 221 219 209 206 204 200 202 207 207 194 196 195 191 194 197 199 198 196 194 193 193 193 191 193
80 92 86 71 76 87 96 106 145 163 160 162 158 146 124 89 135 140 118 125 108 175 149 203 188 155 102 179 199 120 13 311 312 314 234 220 262 291 309 316 10 0 56 95 110 107 102 132 177 199 204 230 243 201 216 213 224 220 217 218 223 228 231 226 218 207 203 201 204 208 201 194 196 194 198 200 201 200 201 200 198 199 199 196 195
74 76 72 69 67 71 84 108 114 109 112 111 137 172 171 149 133 142 173 158 154 175 40 175 127 44 144 100 49 30 235 227 111 297 13 39 357 341 321 336 14 19 41 75 87 87 115 123 129 146 179 191 209 192 183 193 210 213 226 230 233 234 234 237 233 223 214 208 206 208 206 197 197 196 200 201 202 202 202 203 199 200 204 201 200
73 71 74 79 68 60 46 71 91 87 95 84 71 70 50 93 171 142 104 84 138 116 112 28 103 106 70 128 161 175 172 244 99 223 348 28 342 3 23 349 353 4 41 65 65 66 78 104 133 143 140 149 161 169 171 183 193 193 197 213 220 228 233 236 239 237 228 220 216 211 210 202 198 197 200 201 201 202 204 206 207 207 206 211 209
83 81 70 63 65 60 56 39 54 86 80 73 77 86 69 56 50 81 120 129 130 132 156 154 96 76 166 167 146 126 128 117 190 104 95 308 7 335 334 338 332 7 31 54 60 48 19 24 150 125 92 94 128 148 156 172 181 184 195 207 216 222 226 230 236 242 240 233 227 220 214 209 199 199 199 200 200 201 204 207 213 214 212 212 213
101 93 87 79 76 66 56 63 75 74 76 80 82 73 64 49 60 79 86 65 80 130 142 162 142 164 158 93 43 71 98 87 83 151 163 131 311 325 309 297 319 274 204 124 120 110 12 349 48 100 107 154 152 155 162 166 171 175 184 200 219 222 222 225 228 234 244 250 244 235 220 221 210 201 200 199 201 200 203 206 211 213 213 216 216
105 104 93 83 76 82 69 69 79 87 87 79 72 78 84 71 57 56 65 56 65 71 90 77 79 129 119 64 68 82 61 36 62 25 107 93 304 312 306 328 327 278 266 248 177 173 185 219 285 291 260 229 173 155 174 172 175 178 196 192 203 213 219 222 224 228 233 241 252 252 241 226 220 214 206 199 199 201 203 206 208 213 214 216 216
102 102 94 85 85 73 68 68 74 86 94 97 88 76 73 72 75 78 73 72 49 66 81 102 96 84 93 139 134 97 72 77 313 160 357 93 150 232 266 276 296 289 270 253 259 245 212 201 234 264 260 247 233 185 173 189 184 185 203 205 206 201 208 217 219 220 227 234 237 246 251 246 236 220 214 206 204 203 203 206 211 211 213 215 217
108 103 105 98 90 92 81 63 69 87 103 112 116 110 83 86 74 61 56 68 65 59 58 45 61 60 51 69 92 103 120 101 73 47 84 89 30 346 326 326 241 282 287 248 245 243 253 265 248 232 228 239 245 225 193 202 210 194 193 202 204 204 199 202 200 204 214 222 232 239 243 245 242 237 229 210 211 213 208 207 211 212 211 212 215
106 104 95 93 88 85 87 64 60 65 66 77 91 100 97 76 61 72 71 66 64 66 64 53 44 51 57 71 86 96 80 90 127 125 101 98 113 62 14 320 345 319 294 319 269 269 271 258 254 255 256 257 249 237 233 224 222 195 183 196 191 196 190 189 208 206 208 215 223 231 237 238 237 239 239 235 223 218 217 216 215 217 216 214 216
130 124 131 126 121 104 94 90 68 66 71 79 96 95 89 89 84 80 87 87 85 82 71 70 71 75 96 77 77 64 58 43 59 70 74 94 87 55 311 321 3 298 289 93 331 261 254 269 282 324 354 322 300 280 251 234 234 166 179 187 195 192 187 192 202 209 208 213 220 228 237 244 246 245 244 242 240 232 226 220 215 217 216 214 217
150 150 158 146 158 156 131 125 119 93 78 71 73 82 96 103 99 88 74 88 86 77 78 67 60 65 75 73 65 68 54 52 66 67 62 61 58 75 343 334 359 331 305 7 350 23 349 323 79 56 40 353 342 303 265 243 210 170 160 120 185 205 210 212 216 213 213 215 222 230 239 247 257 266 274 270 266 242 224 220 216 213 213 214 215
157 167 155 144 172 126 130 121 118 107 95 69 42 64 99 98 99 93 77 88 80 80 74 74 58 53 53 91 84 66 67 71 72 65 78 75 104 119 71 36 351 356 4 356 355 50 20 336 56 63 42 20 10 11 347 289 79 91 104 107 172 209 219 225 231 234 226 220 221 226 232 242 247 249 251 256 269 283 258 224 217 214 214 215 215
159 154 165 148 163 136 130 128 124 122 128 149 125 99 106 108 100 93 94 102 94 90 89 68 68 62 58 79 82 71 73 74 69 71 69 87 76 73 78 103 74 357 338 359 354 323 9 10 335 44 24 17 13 10 15 38 64 138 357 2 335 293 236 240 245 245 243 242 240 235 236 239 244 248 249 247 246 248 248 240 227 220 216 217 218
157 159 164 153 156 145 142 141 139 147 148 174 137 150 113 126 120 120 139 142 113 145 124 92 90 44 45 85 112 92 82 79 58 59 53 42 43 49 67 109 138 91 11 5 301 333 328 6 13 330 17 360 7 22 16 2 1 359 335 307 285 273 289 217 209 218 222 229 232 234 235 237 241 246 247 246 243 241 236 233 237 226 220 221 222
156 164 160 155 155 151 145 154 155 151 170 204 154 185 125 136 154 152 180 140 131 131 149 136 147 69 64 90 111 106 123 105 125 119 78 62 57 55 50 68 105 103 128 69 292 257 291 308 33 341 353 357 350 354 15 345 316 329 342 347 333 328 350 315 241 209 216 224 231 234 236 235 235 237 238 240 241 242 239 234 228 229 228 223 222
148 153 159 154 156 156 150 157 158 163 170 199 161 187 157 148 179 157 177 129 130 192 193 137 149 96 66 65 70 102 96 139 188 184 165 111 91 81 42 64 66 114 111 98 29 286 356 340 313 338 337 347 347 334 334 329 324 339 332 326 317 322 323 290 276 259 249 243 241 241 243 242 238 238 240 240 241 241 241 237 236 235 229 225 222
159 161 161 164 161 163 158 158 167 163 171 194 165 190 173 148 188 145 182 148 157 177 190 156 139 146 131 79 95 90 29 48 63 179 201 220 165 160 286 43 323 137 127 119 187 273 305 300 319 325 345 341 341 337 331 325 324 327 314 306 302 312 317 307 285 268 254 253 251 250 250 251 250 248 244 245 245 245 242 239 236 237 236 232 229
156 159 167 170 169 165 163 156 168 172 172 189 195 164 190 143 242 162 190 178 172 200 168 185 164 151 172 164 159 165 149 51 3 16 20 9 276 296 222 128 353 338 93 136 266 292 304 317 345 321 322 337 329 335 332 333 336 331 329 319 317 314 306 296 290 293 291 284 278 267 264 270 270 265 258 251 247 246 244 241 237 232 233 232 229
151 166 169 171 166 161 166 166 161 181 182 181 192 153 191 178 223 198 191 208 197 200 182 187 196 182 185 181 211 184 148 149 136 45 18 351 56 113 284 248 252 263 202 130 197 220 291 315 322 311 306 308 297 308 323 325 319 319 314 308 303 296 290 278 276 276 273 277 277 285 269 260 263 261 254 246 244 245 243 237 233 230 229 229 228
139 149 172 155 112 67 46 13 337 191 187 187 186 173 185 196 200 216 186 200 210 194 191 198 196 178 182 153 163 171 129 102 60 315 316 332 335 49 39 76 46 348 338 328 252 276 277 286 280 303 285 317 294 300 311 303 296 298 298 296 296 297 294 288 285 283 282 281 289 286 287 289 286 283 271 253 241 238 244 252 247 238 235 234 231
106 109 93 98 108 119 136 151 181 268 242 199 190 191 189 194 200 210 194 195 209 200 187 201 192 172 178 175 194 180 140 111 136 319 313 345 351 34 25 8 35 22 19 31 52 139 265 317 295 293 300 315 293 290 297 300 295 295 288 289 291 292 290 296 291 282 274 281 287 297 318 336 330 307 288 273 260 251 245 238 239 240 237 237 237
75 76 98 112 117 140 153 159 188 191 98 77 62 347 301 234 203 200 194 189 200 209 197 199 190 179 177 187 206 176 149 143 244 267 6 46 44 44 32 6 13 349 347 356 341 5 338 308 300 288 309 298 290 296 293 297 299 290 296 296 292 287 286 282 289 288 292 307 320 341 344 333 322 309 291 265 251 250 251 253 253 249 243 239 239
157 155 137 146 150 174 170 176 179 164 126 133 155 190 215 241 233 206 197 190 191 194 201 200 200 171 182 185 200 172 158 158 192 193 90 66 48 37 28 14 7 7 4 352 355 353 352 308 288 306 324 307 314 300 299 302 301 302 298 290 297 300 308 314 311 315 329 325 327 325 319 316 308 304 294 279 263 254 251 247 245 244 244 241 238
128 111 119 150 183 180 200 203 196 165 149 150 172 204 215 216 217 217 201 196 192 190 196 189 199 169 178 178 174 150 152 157 152 162 125 69 73 66 47 30 9 11 352 340 343 342 333 325 305 283 299 296 290 306 312 318 305 302 321 328 326 325 325 314 308 309 312 305 277 275 291 296 306 308 298 286 279 269 259 254 250 250 249 247 244
128 142 147 179 208 195 200 199 171 150 166 175 192 212 220 220 210 211 209 197 195 192 187 186 174 158 160 158 150 147 143 149 145 138 119 118 95 50 5 27 16 12 353 345 353 347 341 333 316 320 319 311 330 316 324 350 352 346 359 347 330 331 334 327 312 307 296 306 310 314 320 318 308 300 307 309 296 282 276 271 265 260 259 258 255
212 205 177 175 192 214 198 181 183 185 184 188 194 204 211 220 210 218 223 211 192 186 181 173 161 156 147 141 133 131 132 127 126 130 134 138 123 339 310 62 18 20 350 356 342 346 331 327 314 323 324 323 320 338 337 339 350 324 316 357 327 329 329 330 330 326 328 348 353 349 338 333 323 317 315 318 315 323 305 280 275 274 266 260 260
218 201 186 187 195 207 209 204 192 203 215 216 216 217 217 175 172 189 206 233 208 183 173 160 156 156 151 141 139 136 134 136 134 137 139 131 146 177 208 197 250 291 300 314 310 302 298 302 292 305 314 302 304 315 311 311 326 333 347 354 341 326 331 327 315 312 2 11 357 343 328 327 328 310 304 305 297 310 317 321 301 291 288 281 272
235 229 204 208 210 208 207 203 206 215 223 225 222 216 210 190 199 206 205 218 216 196 173 161 156 155 152 143 143 147 146 147 154 162 169 185 204 210 203 209 211 210 244 274 285 277 284 281 284 302 291 290 292 295 298 311 320 332 318 325 322 334 340 340 317 317 6 11 343 333 322 330 333 322 321 321 325 330 328 318 314 310 298 288 288
224 205 214 222 216 209 206 207 209 215 224 231 218 222 225 202 192 201 205 206 188 193 177 158 154 153 157 154 157 155 159 166 170 178 203 245 248 241 233 233 238 246 254 222 251 282 262 274 287 278 283 277 286 302 301 310 304 325 321 325 327 331 322 315 295 290 319 5 332 317 301 316 323 317 309 303 300 295 294 304 315 313 313 310 300
237 200 219 217 224 213 204 206 215 216 220 231 221 220 228 228 197 196 199 191 166 179 171 158 153 157 157 151 146 158 166 177 171 162 189 233 245 243 249 286 290 258 257 261 251 242 270 271 268 275 264 278 287 281 269 277 311 310 311 308 304 300 291 290 292 297 307 337 319 308 299 308 309 292 291 295 293 291 292 288 284 288 287 286 289
126 189 216 227 245 240 219 212 213 215 213 221 220 221 223 215 188 172 178 159 162 160 162 158 158 158 153 152 141 142 145 154 159 171 196 199 224 227 183 205 240 260 250 251 256 256 246 244 255 264 270 260 270 277 281 292 297 290 294 285 281 287 287 280 284 287 292 314 293 295 285 300 300 294 284 289 281 283 280 277 275 274 274 276 281
306 307 315 317 286 258 253 236 221 200 206 197 204 214 216 172 157 144 133 129 112 112 117 124 125 129 123 116 115 117 124 119 107 129 128 129 137 146 149 185 202 221 223 244 241 235 237 223 226 246 263 271 274 285 296 303 295 288 281 277 280 279 281 285 281 271 285 263 274 299 287 303 303 293 287 295 283 279 278 280 276 274 275 276 276
314 321 309 313 299 300 285 270 215 155 300 347 244 219 156 143 130 126 132 129 127 116 101 96 100 103 105 101 97 109 122 117 166 154 161 149 167 189 228 241 249 273 271 245 258 262 254 260 275 284 299 306 315 307 307 308 313 310 304 298 303 296 293 292 287 299 277 293 269 281 283 288 290 282 293 294 306 301 299 293 284 278 276 278 278
308 306 270 287 352 9 354 352 142 85 18 28 126 133 137 129 109 113 110 107 108 109 112 105 97 94 92 106 125 162 190 172 186 181 167 152 167 220 244 267 273 280 281 304 310 350 16 11 3 345 311 300 300 302 304 303 294 296 302 312 298 293 290 290 285 286 282 295 254 257 280 287 294 291 297 305 300 298 295 284 284 288 296 296 306
309 273 298 51 42 31 46 54 70 87 26 25 127 131 133 125 122 118 112 105 105 113 114 125 137 128 140 171 180 160 107 74 77 61 51 55 60 38 31 10 352 336 314 347 3 340 342 343 339 333 330 328 323 319 314 311 311 316 313 292 293 299 281 275 283 284 286 273 270 266 277 272 292 287 290 291 290 275 302 307 318 330 335 343 2
267 3 56 85 61 44 43 74 87 96 88 33 65 109 113 114 109 113 112 106 96 90 97 81 68 77 69 62 76 92 96 103 91 75 67 73 74 66 53 33 342 318 276 331 333 326 323 326 323 327 319 320 314 307 303 304 302 298 280 276 281 265 276 275 276 293 291 247 234 229 271 290 304 283 310 324 308 287 287 330 336 353 353 354 354